Regional Weather Roundup
Issued by NWS Upton, NY

Current Version | Previous Version | Graphics & Text | Print | Product List | Glossary Off
Versions: 1 2 3 4 5 6 7 8 9 10 11 12 13 14 15 16 17 18 19 20 21 22 23 24 25 26 27 28 29

000
ASUS41 KOKX 221308
RWROKX

REGIONAL WEATHER ROUNDUP
NATIONAL WEATHER SERVICE NEW YORK NY
800 AM EST WED NOV 22 2017

NOTE: "FAIR" INDICATES FEW OR NO CLOUDS BELOW 12,000 FEET WITH NO
SIGNIFICANT WEATHER AND/OR OBSTRUCTIONS TO VISIBILITY.

NYZ071-072-176-178-NJZ106-104-221400-
NEW YORK CITY METRO AREA

CITY           SKY/WX    TMP DP  RH WIND       PRES   REMARKS
Central Park   LGT RAIN  54  52  93 W6        29.92F FOG
Bronx Bot Gard   N/A     48  46  93 N1        29.92S
Bronx Lehman C   N/A     50  32  50 NW1         N/A
LaGuardia APRT RAIN      54  50  86 SW5       29.89F FOG
Queens College   N/A     52  32  46 SW2         N/A
Kennedy INTL   RAIN      52  52 100 CALM      29.91F
Breezy Point     N/A     52 N/A N/A SE1         N/A
Brooklyn Coll    N/A     54  32  43 W2          N/A
Staten Island    N/A     50  32  50 SW2         N/A
Newark/Liberty LGT RAIN  51  48  89 W6        29.91S
Teterboro      LGT RAIN  46  41  82 NW7       29.90F FOG
$$

NYZ177-179-078>081-221400-
LONG ISLAND NEW YORK

CITY           SKY/WX    TMP DP  RH WIND       PRES   REMARKS
Jones Beach      N/A     54 N/A N/A SW7         N/A
Wantagh          N/A     55  32  41 SW5         N/A
Matinecock PT    N/A     52 N/A N/A SW5         N/A
Farmingdale    RAIN      55  54  96 SW8       29.90F FOG
MacArthur/ISP  LGT RAIN  54  54 100 SW5       29.90F FOG
Shirley        LGT RAIN  54  54 100 SW5       29.91F FOG
Mt Sinai Harb    N/A     54 N/A N/A SW1         N/A
Westhampton    LGT RAIN  54  53  97 S3        29.92F FOG
East Hampton   RAIN      53  52  97 SE3       29.92S
Southold         N/A     54  32  43 SE1         N/A
Montauk        NOT AVBL
$$

NYZ052-065-067-221400-
HUDSON VALLEY

CITY           SKY/WX    TMP DP  RH WIND       PRES   REMARKS
White Plains   LGT RAIN  48  46  93 CALM      29.89F FOG
Larchmont Harb   N/A     48 N/A N/A NW6         N/A
Croton On Huds   N/A     46 N/A N/A CALM        N/A
Somers           N/A     45  32  61 SW2         N/A
Brewster         N/A     43  32  65 CALM        N/A
Newburgh       LGT RAIN  39  39 100 NW9       29.92R WCI  33
Montgomery     LGT RAIN  37  34  89 CALM      29.90R
Suffern          N/A     45  32  61 SW1         N/A
Poughkeepsie   LGT RAIN  37  33  85 CALM      29.91R
Albany         CLOUDY    41  34  76 CALM      29.92R
$$

NJZ001-105-106-008-010-013-015-019>022-104-221400-
NEW JERSEY

CITY           SKY/WX    TMP DP  RH WIND       PRES   REMARKS
Newark/Liberty LGT RAIN  51  48  89 W6        29.91S
Teterboro      LGT RAIN  46  41  82 NW7       29.90F FOG
Caldwell       LGT RAIN  41  39  93 CALM      29.93R
Somerville     RAIN      42  41  96 CALM      29.91R FOG
Linden         RAIN      48  44  85 CALM      29.91R
Perth Amboy      N/A     46 N/A N/A W5          N/A
Sussex         LGT RAIN  38  36  92 CALM      29.92R
Andover          N/A     39  39 100 CALM      29.92R
Trenton        RAIN      47  45  93 N5        29.90F FOG
Millville      LGT RAIN  53  53 100 W3        29.90F FOG
Atlantic City  HVY RAIN  55  55 100 NW6       29.89F FOG
Wrightstown    RAIN      53  52  97 SW6       29.89S FOG
Toms River     HVY RAIN  53  53 100 CALM      29.92R FOG
Belmar         LGT RAIN  53  53 100 SW5       29.91F FOG
$$

PAZ047>061-062-071-221400-
EASTERN PENNSYLVANIA

CITY           SKY/WX    TMP DP  RH WIND       PRES   REMARKS
Philadelphia   CLOUDY    52  50  93 W5        29.92R
Allentown      CLOUDY    40  35  83 SW3       29.92F
Scranton       CLOUDY    38  36  92 CALM      29.93R
$$

CTZ002-004>006-009-010-012-RIZ004-006-007-MAZ004-011-015-221400-
SOUTHERN NEW ENGLAND
 IN CT

CITY           SKY/WX    TMP DP  RH WIND       PRES   REMARKS
Bradley INTL   LGT RAIN  44  42  93 SE6       29.90F
Hartford       LGT RAIN  45  43  93 CALM      29.91F FOG
Danbury        LGT RAIN  44  41  89 CALM      29.91F
Wtrbury/Oxford LGT RAIN  47  47 100 S7        29.90F FOG
Norwalk Harbor   N/A     46 N/A N/A N5          N/A
Bridgeport     RAIN      49  47  93 NE5       29.90F FOG
Meriden        LGT RAIN  44  43  96 CALM      29.90F FOG
New Haven      LGT RAIN  52  50  93 CALM      29.90F
Chester        LGT RAIN  54  54 100 CALM      29.91F
Groton         RAIN      54  53  97 S5        29.91F FOG
Wilimantic     RAIN      45  43  93 NE3       29.94S FOG

 IN RI

CITY           SKY/WX    TMP DP  RH WIND       PRES   REMARKS
Providence     LGT RAIN  53  53 100 S3        29.94S FOG
Block Island   LGT RAIN  53  53 100 SW9         N/A  FOG
Westerly       LGT RAIN  54  54 100 S3        29.93F FOG
 IN MA

CITY           SKY/WX    TMP DP  RH WIND       PRES   REMARKS
Boston         RAIN      50  50 100 CALM      29.95S FOG
Worcester      RAIN      45  42  89 SW6       29.93R
Westfield      CLOUDY    39  39 100 CALM      29.91S
Provincetown   LGT RAIN  55  53  93 S5        29.95F
Nantucket      CLOUDY    56  54  93 S16       29.96F
$$

ANZ330-335-338-340-345-350-353-355-221400-
COASTAL MARINE OBSERVATIONS


STATION/POSITION TIME  SKY/WX   TEMP    WIND        PRES    VSBY  WAVE
                                AIR SEA DIR/SP/G                  HT/PER
                 (UTC)          (F)     (DEG/KT/KT) (MB)    (MI)  (FT/S)
NY HARB ENTRANCE 1150            56 57  200/ 12/ 14 1012.1          3/ 6
20 S FIRE ISLAND 1150            56 57  230/ 14/ 16 1013.0          5/ 6
GREAT SOUTH BAY  NOT AVBL
HUDSON CANYON    1150            63 59  190/ 10/ 16 1012.2          5/ 6
KINGS POINT      1242            52 51  190/  4/  6 1013.0
EXECUTION ROCKS  1230            51      60/  4/  4   N/A
WESTERN LI SOUND 1149            51     130/  2/  4   N/A           0
CENTRAL LI SOUND 1215            54     180/  4/  6   N/A           1
ROBBINS REEF     1248            52     220/  3/  4 1013.2
$$


>>>>>>>>>>>>>>>>>>>>>>>>>>>> KEY <<<<<<<<<<<<<<<<<<<<<<<<<<<
>                                                          <
>     SKY/WX - Sky Condition/Present Weather               <
>     TMP    - Temperature in Fahrenheit                   <
>     DP     - Dew Point in Fahrenheit                     <
>     RH     - Relative Humidity in Percent                <
>     WIND   - Direction (from) and Speed in MPH           <
>     PRES   - Mean Sea Level Pressure (inches of Hg)      <
>     WCI    - Wind Chill Index                            <
>     VSB    - VISIBILITY IN MILES                         <
>     HX     - HEAT INDEX                                  <
>     TC     - TEMPERATURE IN CELSIUS                      <
>     VRB    - VARIABLE WIND DIRECTION                     <
>                                                          <
>>>>>>>>>>>>>>>>>>>>>>>>>>>> KEY <<<<<<<<<<<<<<<<<<<<<<<<<<<




USA.gov is the U.S. government's official web portal to all federal, state and local government web resources and services.